Flag for United Kingdom Weather past 2 weeks in Greenwich Borough, England, United Kingdom

Now
52 °F

Passing clouds.


Feels Like: 52 °F
Forecast: 51 / 61 °F
Wind: 1 mph from Northwest

Location: Northolt

Current Time: Sep 5, 2015 at 12:41:58 AM

Latest Report: Sep 4, 2015 at 11:50 PM


Visibility: N/A

Pressure: 30.09 "Hg

Humidity: 82%

Dew point: 46 °F

Location of Greenwich BoroughLocation

Historic Weather in Greenwich Borough — Graph

°F

Greenwich Borough temperature yesterday

Maximum temperature yesterday: 59 °F (at 11:50 AM)
Minimum temperature yesterday: 50 °F (at 2:50 AM)
Average temperature yesterday: 55 °F

Past Weeks' High & Low Weather Summary

 TemperatureHumidityPressure
High86 °F (Aug 22, 1:50 PM)100% (Aug 22, 3:50 AM)30.12 "Hg (Aug 22, 3:50 AM)
Low46 °F (Sep 2, 4:50 AM)38% (Aug 22, 3:50 PM)29.42 "Hg (Aug 24, 12:50 PM)
Average61 °F80%29.90 "Hg
* Reported Aug 20 10:50 PM — Sep 4 10:50 PM, Greenwich Borough, Weather by CustomWeather, © 2015

Note: Actual official high and low records may vary slightly from our data, if they occured in-between our weather recording intervals... More about our weather records

Advertising

Greenwich Borough weather history for previous 24 hours

 ConditionsComfort  
Time TempWeatherWind HumidityBarometerVisibility
10:50 PM
Fri, Sep 4
52 °FPassing clouds.3 mph82%30.09 "HgN/A
9:50 PM55 °FClear.3 mph72%30.07 "Hg10 mi
8:50 PM55 °FClear.2 mph72%30.07 "Hg10 mi
7:50 PM57 °FPartly sunny.5 mph63%30.07 "HgN/A
6:50 PM57 °FPartly sunny.5 mph63%30.07 "HgN/A
5:50 PM59 °FPartly sunny.10 mph55%30.07 "HgN/A
4:50 PM59 °FBroken clouds.10 mph55%30.04 "HgN/A
3:50 PM59 °FBroken clouds.6 mph63%30.04 "HgN/A
2:50 PM59 °FBroken clouds.6 mph63%30.04 "HgN/A
1:50 PM59 °FBroken clouds.8 mph63%30.07 "HgN/A
12:50 PM59 °FBroken clouds.8 mph63%30.04 "HgN/A
11:50 AM59 °FBroken clouds.9 mph63%30.07 "HgN/A
10:50 AM57 °FBroken clouds.8 mph72%30.07 "HgN/A
9:50 AM57 °FBroken clouds.8 mph72%30.07 "HgN/A
8:50 AM55 °FBroken clouds.3 mph77%30.04 "HgN/A
7:50 AM54 °FPartly sunny.5 mph82%30.04 "HgN/A
6:50 AM52 °FPartly cloudy.2 mph88%30.04 "HgN/A
5:50 AM52 °FPassing clouds.5 mph82%30.01 "HgN/A
4:50 AM52 °FClear.5 mph82%30.01 "Hg10 mi
3:50 AM52 °FPassing clouds.6 mph82%30.01 "HgN/A
2:50 AM50 °FPassing clouds.6 mph82%30.01 "HgN/A
1:50 AM52 °FPassing clouds.6 mph77%30.01 "HgN/A
12:50 AM52 °FClear.5 mph82%30.04 "Hg10 mi
Weather by CustomWeather, © 2015

See weather overviewHow to use our weather pages